Back to catalog

COSMOS 1579 COOLANT

LostLEO
NORAD 26523·DEBRIS·🇷🇺 Russia

Launched Jun 29, 1984 from Baikonur Cosmodrome

Loading…

Next Passes (next 24 hours)

TLE

StaleSource: Space-Track

Epoch: Mar 14, 2023, 16:06 UTC

1 26523U 84069Q   23073.67133381  .00000322  00000-0  32452-3 0  9998
2 26523  65.0467  94.2908 0032630  41.9429 318.4125 13.91412851168917

Track COSMOS 1579 COOLANT in real time with AllMySat

Download on the App Store